Retour au catalogue

THOR ABLESTAR DEB

ActifLEO
NORAD 6748·DEBRIS·🇺🇸 United States

Lancé Jun 29, 1961 depuis Cape Canaveral Space Force Station

Loading…

Prochains Passages (prochaines 24 heures)

TLE

FraisSource: Space-Track

Époque: Sep 14, 2026, 12:43 UTC

1 06748U 61015KN  26257.53008325  .00003460  00000-0  11753-2 0  9998
2 06748  66.8913  84.5240 0064455 225.5484 134.0337 14.36580985303496

Suivez THOR ABLESTAR DEB en temps réel avec AllMySat

Download on the App Store